This is the latest recevied weather packets stored in our database for station/object KLEMETTI. If no packets are shown the sender has not sent any weather packets the latest 10 day(s).
| Time | Temp. | Humidity | Pressure | Rain* | Wind** | Luminosity | Snow |
|---|---|---|---|---|---|---|---|
| 1788450284 | 16.11° C | 65% | 1001.4 hPa | 0 mm | - | - | - |
| 1788449085 | 16.67° C | 66% | 1001.3 hPa | 0 mm | - | - | - |
| 1788447886 | 16.67° C | 60% | 1001.3 hPa | 0 mm | - | - | - |
| 1788446476 | 16.67° C | 59% | 1001.3 hPa | 0 mm | - | - | - |
| 1788445485 | 17.22° C | 62% | 1001.3 hPa | 0 mm | - | - | - |
| 1788444092 | 16.67° C | 63% | 1001.2 hPa | 0 mm | - | - | - |
| 1788441886 | 16.67° C | 65% | 1001.2 hPa | 0 mm | - | - | - |
| 1788440684 | 17.78° C | 62% | 1001.1 hPa | 0 mm | - | - | - |
| 1788439276 | 18.33° C | 56% | 1001.2 hPa | 0 mm | - | - | - |
| 1788437085 | 17.78° C | 60% | 1001.1 hPa | 0 mm | - | - | - |
| 1788435884 | 18.33° C | 61% | 1001.1 hPa | 0 mm | - | - | - |
| 1788432285 | 18.33° C | 62% | 1001.2 hPa | 0 mm | - | - | - |
| 1788431085 | 18.33° C | 65% | 1001.1 hPa | 0 mm | - | - | - |
| 1788429885 | 18.33° C | 65% | 1001 hPa | 0 mm | - | - | - |
| 1788428686 | 18.33° C | 65% | 1001 hPa | 0 mm | - | - | - |
| 1788427486 | 18.33° C | 66% | 1001 hPa | 0 mm | - | - | - |
| 1788426283 | 17.78° C | 70% | 1000.9 hPa | 0 mm | - | - | - |
| 1788423674 | 17.78° C | 71% | 1000.8 hPa | 0 mm | - | - | - |
| 1788421483 | 17.78° C | 70% | 1000.6 hPa | 0 mm | - | - | - |
| 1788420283 | 17.78° C | 73% | 1000.6 hPa | 0 mm | - | - | - |
| 1788419083 | 16.67° C | 79% | 1000.6 hPa | 0 mm | - | - | - |
| 1788416682 | 15° C | 86% | 1000.6 hPa | 0 mm | - | - | - |
| 1788415483 | 14.44° C | 88% | 1000.7 hPa | 0 mm | - | - | - |
| 1788414073 | 13.33° C | 94% | 1000.7 hPa | 0 mm | - | - | - |
| 1788412874 | 12.78° C | 97% | 1000.7 hPa | 0 mm | - | - | - |
* Rain latest hour (hover to see other rain measurements)
** Current wind speed in m/s (hover to see current wind gust speed)